Location: Mason Neck State Park
(38.6428°N, 77.1981°W)
Time: 01:13:00
(UTC-05:00)

Daily predictions for brighter satellites

Satellite Brightness Start Highest point End
(mag) Time Altitude Azimuth Time Altitude Azimuth Time Altitude Azimuth
Lacrosse 5 4.5 03:32:45 15° E 03:32:45 15° E 03:34:34 10° E
Cosmos 2369 Rocket 2.8 04:12:46 52° NNE 04:12:46 52° NNE 04:17:01 10° NNE
ADEOS II 3.1 04:16:13 10° N 04:19:22 37° N 04:19:22 37° N
Cosmos 1371 Rocket 4.4 04:32:01 54° N 04:32:01 54° N 04:36:01 10° NNE
ATLAS CENTAUR R/B 3.5 04:35:03 48° NW 04:37:09 85° SW 04:53:40 10° SE
USA 234 3.5 04:43:39 10° NE 04:49:55 51° NW 04:51:19 44° WNW
Cosmos 2263 4.1 04:51:26 60° W 04:51:58 63° WNW 04:57:32 10° NNE
Cosmos 2266 Rocket 3.9 04:46:51 10° NNW 04:52:53 58° W 04:58:47 10° S
COSMO-SKYMED 1 4.1 04:51:25 10° SE 04:55:23 37° ENE 04:59:23 10° N
CZ-4B R/B 4.0 04:52:46 10° N 04:56:42 33° NW 04:56:42 33° NW
ATLAS 5 CENTAUR R/B 1.7 04:58:27 62° W 04:58:50 65° NW 05:03:55 10° NNE
Cosmos 1943 Rocket 2.0 05:03:56 34° SW 05:06:21 69° WNW 05:11:53 10° NNE
Cosmos 407 Rocket 3.5 05:01:04 10° NNW 05:06:27 88° ENE 05:11:47 10° SSE
SJ-6F 4.4 05:02:27 10° NNE 05:06:38 85° E 05:10:45 10° SSW
Cosmos 676 Rocket 4.5 05:02:23 10° NNW 05:07:39 63° ENE 05:12:55 10° SSE
Cosmos 972 Rocket 4.3 05:09:26 41° WNW 05:09:33 41° WNW 05:14:35 10° N
Meteor 1-26 Rocket 4.2 05:06:44 10° S 05:12:29 90° WNW 05:18:09 10° N
Lacrosse 5 1.8 05:12:00 38° WSW 05:13:54 73° NW 05:18:59 10° NE
Meteor 2-10 Rocket 3.3 05:09:23 10° S 05:14:23 90° W 05:19:26 10° N
CZ-4C R/B 2.6 05:12:06 10° SSW 05:17:10 60° ESE 05:22:51 10° NE
Sich 1 Rocket 3.6 05:13:40 10° NNW 05:18:08 60° W 05:22:33 10° S
Tiangong 1 1.5 05:19:06 44° S 05:19:24 47° SSE 05:22:14 10° ENE
Okean-O 3.0 05:19:43 10° N 05:23:52 39° WNW 05:25:06 32° WSW
Cosmos 1908 Rocket 3.8 05:25:56 10° NNW 05:30:12 45° W 05:34:27 10° SSW
Cosmos 1190 Rocket 4.2 05:26:16 10° NNW 05:31:16 45° WSW 05:36:15 10° S
Meteor 1-31 Rocket 3.7 05:28:25 10° N 05:31:27 28° WNW 05:31:27 28° WNW
Okean 1-7 2.9 05:27:49 10° S 05:32:05 80° W 05:36:23 10° N
Cosmos 1140 Rocket 4.0 05:27:55 10° NNW 05:33:07 64° ENE 05:38:18 10° SSE
Cosmos 1244 Rocket 4.5 05:27:23 10° NNW 05:33:31 60° W 05:39:33 10° S
Cosmos 1782 Rocket 3.5 05:31:02 10° NNW 05:35:30 71° W 05:39:55 10° S
IDEFIX/ARIANE 42P 4.4 05:37:10 10° NNE 05:41:55 34° E 05:46:37 10° SSE
SKYMED 2 3.5 05:39:06 10° S 05:43:23 61° W 05:47:42 10° NNW
Cosmos 614 Rocket 4.4 05:41:44 10° NNW 05:46:48 64° ENE 05:51:52 10° SSE
Cosmos 2219 3.6 05:42:59 10° NNW 05:48:40 67° ENE 05:54:15 10° SSE
Okean 2 Rocket 3.0 05:47:59 10° NNW 05:52:19 62° W 05:56:39 10° S
SL-08 R/B 4.5 05:46:24 10° NNW 05:52:39 68° W 05:58:55 10° S
PAYLOAD A 4.4 05:48:16 10° NNE 05:52:57 62° E 05:57:42 10° S
NOAA 6 4.5 05:49:39 10° N 05:54:25 39° WNW 05:59:09 10° SW
Cosmos 2369 Rocket 3.8 05:54:36 14° WNW 05:56:04 15° NW 05:59:13 10° NNW
S3M 4.1 05:51:19 10° SSW 05:57:34 59° W 06:03:48 10° N
Cosmos 2227 Rocket 4.3 05:53:32 10° N 05:58:15 26° ENE 06:02:55 10° ESE
Cosmos 1954 Rocket 4.1 05:54:14 10° NNW 05:59:24 55° WSW 06:04:34 10° S
ADEOS II 4.0 05:59:50 10° NW 06:00:20 10° WNW 06:00:20 10° WNW
Ariane Rocket 2.9 05:58:52 10° N 06:03:57 74° WNW 06:09:00 10° SSW
Cosmos 1420 Rocket 4.0 05:58:52 10° SSW 06:03:58 61° WNW 06:09:07 10° NNE
Cosmos 1553 Rocket 4.2 06:00:54 10° SSW 06:06:47 47° WNW 06:12:48 10° N
SL-12 R/B (Aux Motor) 3.9 06:04:26 11° WNW 06:07:23 68° NNE 06:09:21 10° ESE
CZ-2C R/B 3.1 06:03:56 10° NNE 06:08:46 61° E 06:13:43 10° S
Lacrosse 5 rocket 3.7 06:09:22 10° N 06:10:36 11° NNE 06:11:51 10° NE
Cosmos 2151 Rocket 3.6 06:06:28 10° N 06:11:00 86° W 06:15:29 10° S
Cosmos 1656 Rocket 4.2 06:11:54 10° SW 06:17:12 39° WNW 06:22:32 10° N
Meteor 1-27 Rocket 4.2 06:12:02 10° S 06:17:43 72° E 06:23:34 10° NNE
Cosmos 1607 4.3 06:12:34 10° SSW 06:18:38 71° ESE 06:24:46 10° NE
SeaSat 1 4.2 06:14:02 10° NE 06:18:39 38° ESE 06:23:12 10° S
SMAP 3.5 06:20:41 10° NNE 06:25:20 70° ESE 06:29:58 10° S
